Location: *
(58.4167°N, 22.5000°E)
Time: 00:29:07
(UTC+00:00)

NOSS 3-3 (A) - Pass Details

Date: 22 September 2019
Orbit: 849 x 1363 km, 63.4° (Epoch: 08 October)

Event Time Altitude Azimuth Distance (km) Brightness Sun altitude
Rises 17:05:08 0° 221° (SW) 3,528 7.4 -5.3°
Reaches altitude 10° 17:07:32 10° 219° (SW) 2,639 6.7 -5.6°
Maximum altitude 17:13:38 69° 138° (SE) 1,082 4.1 -6.4°
Drops below altitude 10° 17:20:37 10° 57° (ENE) 2,993 6.1 -7.3°
Sets 17:23:29 0° 56° (NE) 4,035 6.8 -7.7°
